GW7357 Weather Reports


Display with metric or nautical units.
time (UTC)temp
F
wind
direction
speed
MPH
gust
MPH
rain 1hr
in
rain 24hr
in
rain mn
in
humidity
%
barometer
mb
20260510230352 66 51 3.0 4.0 0.00 0.00 0.00 71 1015.0
20260510225849 66 55 3.0 4.0 0.00 0.00 0.00 72 1014.9
20260510225345 66 32 3.0 4.0 0.00 0.00 0.00 73 1015.1
20260510224841 65 65 4.0 4.0 0.00 0.00 0.00 73 1015.3
20260510224337 65 47 2.0 5.0 0.00 0.00 0.00 74 1015.0
20260510223835 65 38 4.0 5.0 0.00 0.00 0.00 75 1015.0
20260510223332 65 345 3.0 6.0 0.00 0.00 0.00 75 1015.1
20260510222830 65 42 4.0 4.0 0.00 0.00 0.00 74 1015.0
20260510222326 65 66 4.0 4.0 0.00 0.00 0.00 74 1014.9
20260510221826 65 62 4.0 5.0 0.00 0.00 0.00 74 1014.9
20260510221324 65 37 2.0 5.0 0.00 0.00 0.00 75 1014.9
20260510220820 65 85 3.0 5.0 0.00 0.00 0.00 75 1014.9
20260510220315 64 56 3.0 5.0 0.00 0.00 0.00 75 1014.8
20260510215812 64 7 3.0 6.0 0.00 0.00 0.00 74 1015.0
20260510215310 64 25 4.0 6.0 0.00 0.00 0.00 74 1015.0
20260510214807 64 34 4.0 5.0 0.00 0.00 0.00 74 1014.8
20260510214304 65 89 3.0 4.0 0.00 0.00 0.00 74 1014.9
20260510213801 65 36 1.0 4.0 0.00 0.00 0.00 73 1014.8
20260510213258 65 18 2.0 5.0 0.00 0.00 0.00 72 1014.6
20260510212754 66 6 3.0 6.0 0.00 0.00 0.00 70 1014.9
20260510212252 67 69 4.0 6.0 0.00 0.00 0.00 70 1014.8
20260510211748 68 62 4.0 5.0 0.00 0.00 0.00 68 1014.5
20260510211243 69 354 5.0 6.0 0.00 0.00 0.00 66 1014.5
20260510210740 70 5 3.0 5.0 0.00 0.00 0.00 64 1014.3
20260510210235 71 27 5.0 6.0 0.00 0.00 0.00 63 1014.3
20260510205734 71 58 2.0 4.0 0.00 0.00 0.00 61 1014.3
20260510205230 71 335 2.0 4.0 0.00 0.00 0.00 61 1014.0
20260510204727 71 48 4.0 4.0 0.00 0.00 0.00 62 1014.0
20260510204223 71 48 2.0 3.0 0.00 0.00 0.00 62 1014.1
20260510203720 71 56 4.0 5.0 0.00 0.00 0.00 62 1013.8
20260510203217 71 43 2.0 4.0 0.00 0.00 0.00 62 1013.7
20260510202718 72 35 2.0 4.0 0.00 0.00 0.00 62 1013.8
20260510202213 72 88 3.0 4.0 0.00 0.00 0.00 62 1013.7
20260510201710 72 62 4.0 4.0 0.00 0.00 0.00 62 1013.9
20260510201207 72 103 2.0 5.0 0.00 0.00 0.00 61 1013.8
20260510200703 72 63 4.0 4.0 0.00 0.00 0.00 61 1014.0
20260510200201 72 74 4.0 5.0 0.00 0.00 0.00 60 1014.1
20260510195658 72 37 2.0 6.0 0.00 0.00 0.00 60 1014.1
20260510195155 72 31 2.0 4.0 0.00 0.00 0.00 59 1014.2
20260510194654 73 29 4.0 5.0 0.00 0.00 0.00 57 1014.1
20260510194150 74 336 3.0 5.0 0.00 0.00 0.00 56 1014.0
20260510193646 73 354 0.0 4.0 0.00 0.00 0.00 56 1014.1
20260510193141 73 39 2.0 4.0 0.00 0.00 0.00 57 1014.2
20260510192637 73 338 2.0 5.0 0.00 0.00 0.00 58 1014.1
20260510192132 73 84 2.0 8.0 0.00 0.00 0.00 58 1013.9
20260510191629 73 102 2.0 4.0 0.00 0.00 0.00 58 1014.2
20260510191126 73 109 2.0 3.0 0.00 0.00 0.00 58 1014.1
20260510190623 72 51 2.0 4.0 0.00 0.00 0.00 59 1014.1
20260510190121 72 35 2.0 4.0 0.00 0.00 0.00 60 1014.2
20260510185617 71 38 3.0 4.0 0.00 0.00 0.00 61 1014.2
20260510185115 71 32 2.0 5.0 0.00 0.00 0.00 60 1014.5
20260510184612 71 58 3.0 4.0 0.00 0.00 0.00 61 1014.4
20260510184107 70 41 3.0 4.0 0.00 0.00 0.00 62 1014.5
20260510183603 70 70 3.0 4.0 0.00 0.00 0.00 63 1014.4
20260510183058 69 0 2.0 3.0 0.00 0.00 0.00 63 1014.4
20260510182555 69 38 0.0 3.0 0.00 0.00 0.00 64 1014.5
20260510182050 69 10 2.0 4.0 0.00 0.00 0.00 64 1014.5
20260510181548 69 56 2.0 4.0 0.00 0.00 0.00 63 1014.4
20260510181044 69 52 1.0 4.0 0.00 0.00 0.00 63 1014.6
20260510180541 70 34 3.0 5.0 0.00 0.00 0.00 62 1014.4
20260510180039 69 77 2.0 4.0 0.00 0.00 0.00 63 1014.4
20260510175539 69 6 2.0 3.0 0.00 0.00 0.00 63 1014.3
20260510175035 69 101 2.0 4.0 0.00 0.00 0.00 64 1014.4
20260510174534 68 19 2.0 2.0 0.00 0.00 0.00 65 1014.3
20260510174030 68 293 4.0 8.0 0.00 0.00 0.00 64 1014.3
20260510173525 68 54 2.0 4.0 0.00 0.00 0.00 65 1014.3
20260510173023 68 334 2.0 4.0 0.00 0.00 0.00 66 1014.4
20260510172518 68 298 7.0 9.0 0.00 0.00 0.00 65 1014.5
20260510172015 68 313 3.0 4.0 0.00 0.00 0.00 65 1014.4
20260510171512 67 242 0.0 6.0 0.00 0.00 0.00 66 1014.5
20260510171009 67 297 2.0 8.0 0.00 0.00 0.00 66 1014.6
20260510170505 67 58 3.0 4.0 0.00 0.00 0.00 67 1014.4
20260510170001 66 75 3.0 4.0 0.00 0.00 0.00 67 1014.4
20260510165457 66 97 4.0 5.0 0.00 0.00 0.00 68 1014.6
20260510164954 66 81 5.0 5.0 0.00 0.00 0.00 68 1014.7
20260510164451 66 67 2.0 5.0 0.00 0.00 0.00 69 1014.6
20260510163946 66 109 2.0 5.0 0.00 0.00 0.00 68 1014.7
20260510163442 66 51 2.0 5.0 0.00 0.00 0.00 69 1014.9
20260510162937 65 69 3.0 5.0 0.00 0.00 0.00 69 1014.9
20260510162435 65 28 4.0 4.0 0.00 0.00 0.00 70 1014.9
20260510161930 65 339 1.0 4.0 0.00 0.00 0.00 71 1015.0
20260510161426 65 26 2.0 4.0 0.00 0.00 0.00 71 1014.8
20260510160924 65 75 3.0 4.0 0.00 0.00 0.00 71 1014.8
20260510160421 65 70 3.0 4.0 0.00 0.00 0.00 70 1014.8
20260510155919 65 42 1.0 4.0 0.00 0.00 0.00 71 1015.0
20260510155416 65 28 2.0 4.0 0.00 0.00 0.00 71 1015.0
20260510154913 64 43 0.0 4.0 0.00 0.00 0.00 72 1015.0
20260510154409 64 41 3.0 4.0 0.00 0.00 0.00 72 1015.0
20260510153908 64 29 2.0 4.0 0.00 0.00 0.00 73 1015.1
20260510153406 64 14 2.0 4.0 0.00 0.00 0.00 73 1015.0
20260510152902 64 68 4.0 4.0 0.00 0.00 0.00 73 1015.1
20260510152359 63 50 1.0 3.0 0.00 0.00 0.00 75 1015.0
20260510151855 63 328 3.0 4.0 0.00 0.00 0.00 75 1015.0
20260510151354 63 47 2.0 4.0 0.00 0.00 0.00 75 1015.1
20260510150849 62 82 3.0 5.0 0.00 0.00 0.00 76 1015.1
20260510150345 62 28 1.0 5.0 0.00 0.00 0.00 77 1015.4
20260510145841 62 74 2.0 4.0 0.00 0.00 0.00 78 1015.0
20260510145338 61 347 2.0 4.0 0.00 0.00 0.00 79 1015.0
20260510144834 60 72 2.0 4.0 0.00 0.00 0.00 81 1015.4
20260510144331 60 42 2.0 4.0 0.00 0.00 0.00 82 1015.0
20260510143831 60 96 4.0 5.0 0.00 0.00 0.00 81 1015.0
20260510143327 60 63 4.0 4.0 0.00 0.00 0.00 81 1014.9
20260510142825 59 66 4.0 5.0 0.00 0.00 0.00 83 1015.0
20260510142321 59 11 4.0 4.0 0.00 0.00 0.00 84 1015.0
20260510141818 58 296 1.0 5.0 0.00 0.00 0.00 84 1015.1
20260510141316 58 27 1.0 4.0 0.00 0.00 0.00 85 1014.9
20260510140813 57 46 3.0 3.0 0.00 0.00 0.00 86 1014.8
20260510140308 57 80 2.0 5.0 0.00 0.00 0.00 86 1015.1
20260510135807 57 84 2.0 4.0 0.00 0.00 0.00 87 1014.7
20260510135306 57 13 0.0 4.0 0.00 0.00 0.00 89 1014.8
20260510134801 56 81 3.0 4.0 0.00 0.00 0.00 89 1014.8
20260510134258 56 68 4.0 4.0 0.00 0.00 0.00 91 1014.9
20260510133754 55 93 3.0 6.0 0.00 0.00 0.00 91 1014.9
20260510133250 55 118 5.0 6.0 0.00 0.00 0.00 91 1014.7
20260510132745 55 119 1.0 4.0 0.00 0.00 0.00 92 1014.8
20260510132244 54 93 3.0 4.0 0.00 0.00 0.00 92 1014.7
20260510131740 54 84 2.0 4.0 0.00 0.00 0.00 92 1014.6
20260510131239 54 94 4.0 4.0 0.00 0.00 0.00 93 1014.8
20260510130734 54 84 2.0 5.0 0.00 0.00 0.00 92 1014.6
20260510130231 54 37 2.0 3.0 0.00 0.00 0.00 92 1014.6
20260510125728 54 122 4.0 6.0 0.00 0.00 0.00 92 1014.4
20260510125224 54 108 4.0 5.0 0.00 0.00 0.00 93 1014.5
20260510124721 54 113 3.0 5.0 0.00 0.00 0.00 93 1014.5
20260510124219 54 105 4.0 6.0 0.00 0.00 0.00 94 1014.5
20260510123713 53 115 4.0 5.0 0.00 0.00 0.00 94 1014.3
20260510123210 53 88 4.0 4.0 0.00 0.00 0.00 95 1014.5
20260510122706 53 104 4.0 5.0 0.00 0.00 0.00 95 1014.4
20260510122203 53 83 3.0 4.0 0.00 0.00 0.00 95 1014.2
20260510121659 53 109 1.0 4.0 0.00 0.00 0.00 95 1014.4
20260510121156 53 100 3.0 4.0 0.00 0.00 0.00 96 1014.0
20260510120654 52 19 2.0 5.0 0.00 0.00 0.00 96 1014.0
20260510120149 52 88 3.0 3.0 0.00 0.00 0.00 96 1013.9
20260510115645 52 108 3.0 5.0 0.00 0.00 0.00 96 1013.9
20260510115144 52 35 3.0 3.0 0.00 0.00 0.00 96 1013.8
20260510114639 52 43 2.0 4.0 0.00 0.00 0.00 96 1013.8
20260510114136 52 54 3.0 4.0 0.00 0.00 0.00 96 1014.0
20260510113631 52 75 3.0 5.0 0.00 0.00 0.00 96 1013.9
20260510113128 52 123 4.0 7.0 0.00 0.00 0.00 96 1013.8
20260510112625 52 86 8.0 10.0 0.00 0.00 0.00 96 1013.6
20260510112122 52 121 5.0 8.0 0.00 0.00 0.00 96 1013.6
20260510111618 52 127 6.0 7.0 0.00 0.00 0.00 97 1013.8
20260510111114 52 116 5.0 6.0 0.00 0.00 0.00 97 1013.6
20260510110610 52 106 5.0 7.0 0.00 0.00 0.00 97 1013.4
20260510110107 52 98 4.0 6.0 0.00 0.00 0.00 97 1013.2
20260510105603 52 119 5.0 6.0 0.00 0.00 0.00 97 1013.3
20260510105057 52 103 4.0 9.0 0.00 0.00 0.00 97 1013.3
20260510104554 52 100 3.0 6.0 0.00 0.00 0.00 97 1013.4
20260510104051 52 85 4.0 5.0 0.00 0.00 0.00 98 1013.5
20260510103548 52 10 4.0 6.0 0.00 0.00 0.00 98 1013.6
20260510103044 52 50 4.0 4.0 0.00 0.00 0.00 98 1013.4
20260510102539 52 89 4.0 6.0 0.00 0.00 0.00 98 1013.3
20260510102036 52 79 0.0 5.0 0.00 0.00 0.00 98 1013.4
20260510101533 52 105 5.0 6.0 0.00 0.00 0.00 98 1013.4
20260510101032 52 107 4.0 7.0 0.00 0.00 0.00 98 1013.5
20260510100527 52 115 6.0 7.0 0.00 0.00 0.00 98 1013.4
20260510100025 52 94 3.0 4.0 0.00 0.00 0.00 98 1013.5
20260510095521 52 107 5.0 5.0 0.00 0.00 0.00 98 1013.4
20260510095020 52 75 3.0 4.0 0.00 0.00 0.00 98 1013.4
20260510094515 52 105 3.0 5.0 0.00 0.00 0.00 98 1013.7
20260510094011 52 106 5.0 8.0 0.00 0.00 0.00 98 1013.8
20260510093507 52 156 3.0 7.0 0.00 0.00 0.00 98 1013.9
20260510093003 52 106 3.0 4.0 0.00 0.00 0.00 98 1013.8
20260510092500 52 159 0.0 5.0 0.00 0.00 0.00 98 1014.1
20260510092000 52 47 2.0 5.0 0.00 0.00 0.00 98 1014.1
20260510091457 52 62 4.0 7.0 0.00 0.00 0.00 98 1014.0
20260510090953 52 36 4.0 6.0 0.00 0.00 0.00 98 1013.8
20260510090450 52 14 3.0 4.0 0.00 0.00 0.00 98 1013.8
20260510085946 52 146 3.0 5.0 0.00 0.00 0.00 98 1013.8
20260510085441 52 42 2.0 4.0 0.00 0.00 0.00 98 1013.8
20260510084936 52 76 5.0 6.0 0.00 0.00 0.00 98 1013.8
20260510084434 52 72 2.0 4.0 0.00 0.00 0.00 98 1013.8
20260510083930 52 9 5.0 5.0 0.00 0.00 0.00 98 1013.8
20260510083427 52 313 3.0 7.0 0.00 0.00 0.00 98 1013.7
20260510082922 52 355 4.0 6.0 0.00 0.00 0.00 98 1013.5
20260510082420 52 127 3.0 5.0 0.00 0.00 0.00 98 1013.2
20260510081919 52 103 5.0 5.0 0.00 0.00 0.00 98 1012.9
20260510081415 52 80 1.0 3.0 0.00 0.00 0.00 98 1013.1
20260510080912 52 93 2.0 4.0 0.00 0.00 0.00 98 1013.2
20260510080411 52 99 2.0 4.0 0.00 0.00 0.00 98 1013.1
20260510075908 52 116 3.0 5.0 0.00 0.00 0.00 98 1013.2
20260510075406 52 0 2.0 5.0 0.00 0.00 0.00 98 1012.9
20260510074902 52 118 3.0 4.0 0.00 0.00 0.00 98 1012.8
20260510074359 52 86 4.0 7.0 0.00 0.00 0.00 97 1012.7
20260510073856 52 85 4.0 6.0 0.00 0.00 0.00 97 1012.8
20260510073351 52 89 1.0 5.0 0.00 0.00 0.00 97 1012.7
20260510072848 52 137 3.0 4.0 0.00 0.00 0.00 97 1012.7
20260510072345 52 115 6.0 6.0 0.00 0.00 0.00 97 1012.8
20260510071840 52 140 2.0 5.0 0.00 0.00 0.00 97 1013.1
20260510071337 52 15 3.0 7.0 0.00 0.00 0.00 97 1013.0
20260510070836 52 35 4.0 6.0 0.00 0.00 0.00 97 1012.9
20260510070332 52 15 4.0 5.0 0.00 0.00 0.00 97 1013.0
20260510065827 52 43 6.0 6.0 0.00 0.00 0.00 97 1012.9
20260510065324 52 63 5.0 7.0 0.00 0.00 0.00 97 1012.9
20260510064821 52 318 2.0 5.0 0.00 0.00 0.00 97 1013.0
20260510064319 52 8 4.0 6.0 0.00 0.00 0.00 97 1012.8
20260510063815 52 358 1.0 4.0 0.00 0.00 0.00 97 1012.7
20260510063311 52 349 2.0 4.0 0.00 0.00 0.00 97 1012.7
20260510062808 52 46 3.0 3.0 0.00 0.00 0.00 97 1012.6
20260510062306 53 104 4.0 6.0 0.00 0.00 0.00 97 1012.7
20260510061759 53 106 2.0 5.0 0.00 0.00 0.00 97 1012.5
20260510061256 53 51 0.0 4.0 0.00 0.00 0.00 97 1012.6
20260510060752 53 67 2.0 4.0 0.00 0.00 0.00 97 1012.6
20260510060249 53 80 0.0 5.0 0.00 0.00 0.00 97 1012.5
20260510055746 53 17 2.0 4.0 0.00 0.00 0.00 96 1012.6
20260510055244 53 59 2.0 4.0 0.00 0.00 0.00 96 1012.5
20260510054744 53 29 1.0 4.0 0.00 0.00 0.00 96 1012.7
20260510054240 53 89 2.0 4.0 0.00 0.00 0.00 96 1012.6
20260510053739 53 121 3.0 4.0 0.00 0.00 0.00 96 1012.9
20260510053236 53 101 1.0 4.0 0.00 0.00 0.00 96 1012.8
20260510052732 53 126 3.0 4.0 0.00 0.00 0.00 96 1012.7
20260510052228 53 103 1.0 5.0 0.00 0.00 0.00 96 1012.7
20260510051724 53 89 3.0 3.0 0.00 0.00 0.00 96 1012.6
20260510051221 53 96 3.0 4.0 0.00 0.00 0.00 96 1012.6
20260510050718 53 101 3.0 4.0 0.00 0.00 0.00 96 1012.7
20260510050215 53 120 2.0 3.0 0.00 0.00 0.00 96 1013.1
20260510045712 54 97 2.0 3.0 0.00 0.00 0.00 96 1012.9
20260510045208 54 56 3.0 3.0 0.00 0.00 0.00 95 1013.0
20260510044704 53 54 2.0 3.0 0.00 0.00 0.00 95 1013.0
20260510044203 53 107 4.0 4.0 0.00 0.00 0.00 95 1012.9
20260510043658 53 105 2.0 3.0 0.00 0.00 0.00 95 1012.9
20260510043155 54 129 2.0 5.0 0.00 0.00 0.00 95 1012.8
20260510042652 54 79 3.0 4.0 0.00 0.00 0.00 95 1013.0
20260510042148 54 114 2.0 4.0 0.00 0.00 0.00 94 1012.9
20260510041645 54 88 3.0 4.0 0.00 0.00 0.00 94 1012.9
20260510041142 54 97 3.0 3.0 0.00 0.00 0.00 94 1012.8
20260510040640 54 94 4.0 5.0 0.00 0.00 0.00 94 1012.6
20260510040136 54 102 4.0 5.0 0.00 0.17 0.17 94 1012.8
20260510035631 54 65 3.0 4.0 0.00 0.17 0.17 94 1012.6
20260510035126 54 351 2.0 4.0 0.00 0.17 0.17 93 1012.8
20260510034624 55 76 1.0 3.0 0.00 0.17 0.17 93 1012.5
20260510034121 55 26 2.0 3.0 0.00 0.17 0.17 93 1012.5
20260510033617 55 38 3.0 4.0 0.00 0.17 0.17 93 1012.6
20260510033115 55 78 2.0 4.0 0.00 0.17 0.17 93 1012.4
20260510032611 55 65 2.0 4.0 0.00 0.17 0.17 93 1012.5
20260510032107 55 64 3.0 4.0 0.00 0.17 0.17 93 1012.3
20260510031602 55 87 3.0 3.0 0.00 0.17 0.17 92 1012.4
20260510031058 55 131 1.0 4.0 0.00 0.17 0.17 92 1012.4
20260510030554 55 13 1.0 3.0 0.00 0.17 0.17 92 1012.3
20260510030051 55 69 1.0 3.0 0.00 0.17 0.17 92 1012.5
20260510025548 55 39 3.0 4.0 0.00 0.17 0.17 91 1012.5
20260510025046 55 50 2.0 4.0 0.00 0.17 0.17 91 1012.5
20260510024542 55 56 1.0 3.0 0.00 0.17 0.17 91 1012.6
20260510024038 55 79 2.0 3.0 0.00 0.17 0.17 92 1012.6
20260510023535 55 60 2.0 3.0 0.00 0.17 0.17 92 1012.7
20260510023033 55 61 2.0 3.0 0.00 0.17 0.17 92 1012.6
20260510022532 55 37 2.0 2.0 0.00 0.17 0.17 92 1012.5
20260510022032 55 25 2.0 3.0 0.00 0.17 0.17 91 1012.6
20260510021528 55 53 2.0 3.0 0.00 0.17 0.17 91 1012.6
20260510021026 56 21 1.0 3.0 0.00 0.17 0.17 91 1012.6
20260510020520 56 20 0.0 4.0 0.00 0.17 0.17 91 1012.5
20260510020016 56 81 2.0 3.0 0.00 0.17 0.17 91 1012.7
20260510015512 56 105 2.0 4.0 0.00 0.17 0.17 91 1012.5
20260510015008 55 33 1.0 3.0 0.00 0.17 0.17 91 1012.6
20260510014505 56 68 2.0 3.0 0.00 0.17 0.17 91 1012.5
20260510014002 56 39 2.0 2.0 0.00 0.17 0.17 91 1012.5
20260510013456 56 40 1.0 2.0 0.00 0.17 0.17 91 1012.6
20260510012952 56 77 2.0 3.0 0.00 0.17 0.17 91 1012.4
20260510012447 56 75 1.0 3.0 0.00 0.17 0.17 91 1012.4
20260510011942 56 52 1.0 3.0 0.00 0.17 0.17 91 1012.4
20260510011437 56 87 2.0 4.0 0.00 0.17 0.17 91 1012.4
20260510010934 56 94 2.0 5.0 0.00 0.17 0.17 91 1012.2
20260510010431 56 101 4.0 4.0 0.00 0.17 0.17 91 1011.9
20260510005928 56 113 4.0 4.0 0.00 0.17 0.17 91 1011.9
20260510005423 56 99 3.0 3.0 0.00 0.17 0.17 91 1012.0
20260510004921 56 108 4.0 5.0 0.00 0.17 0.17 90 1012.2
20260510004419 56 98 3.0 4.0 0.00 0.17 0.17 91 1012.1
20260510003916 56 66 3.0 4.0 0.00 0.17 0.17 91 1012.0
20260510003413 56 135 3.0 4.0 0.00 0.17 0.17 91 1012.0
20260510002912 56 108 3.0 5.0 0.00 0.17 0.17 91 1012.0
20260510002410 55 102 3.0 5.0 0.00 0.17 0.17 92 1012.0
20260510001906 55 92 3.0 5.0 0.00 0.17 0.17 92 1012.1
20260510001404 55 24 2.0 3.0 0.00 0.17 0.17 92 1012.0
20260510000900 55 23 2.0 4.0 0.00 0.17 0.17 92 1011.9
20260510000357 56 32 3.0 6.0 0.00 0.17 0.17 92 1011.7
20260509235853 55 128 0.0 5.0 0.00 0.17 0.17 92 1011.9
20260509235350 56 54 3.0 4.0 0.00 0.17 0.17 91 1011.8
20260509234846 56 50 4.0 5.0 0.00 0.17 0.17 91 1011.9
20260509234343 56 20 0.0 5.0 0.00 0.17 0.17 91 1011.8
20260509233842 56 7 5.0 7.0 0.00 0.17 0.17 90 1011.8
20260509233339 56 62 2.0 4.0 0.00 0.17 0.17 90 1011.9
20260509232834 56 83 4.0 4.0 0.00 0.17 0.17 90 1011.8
20260509232333 56 87 4.0 5.0 0.00 0.17 0.17 90 1011.8
20260509231828 56 79 5.0 5.0 0.00 0.17 0.17 90 1011.6
20260509231325 56 97 3.0 5.0 0.00 0.17 0.17 90 1011.6
20260509230823 56 131 4.0 6.0 0.00 0.17 0.17 91 1011.9